This is the latest recevied weather packets stored in our database for station/object E22ZMG-3. If no packets are shown the sender has not sent any weather packets the latest 10 day(s).
| Time | Temp. | Humidity | Pressure | Rain* | Wind** | Luminosity | Snow |
|---|---|---|---|---|---|---|---|
| 1777900217 | 35.56° C | 39% | 974 hPa | - | - | 0 W/m² | - |
| 1777900045 | 36.11° C | 39% | 974 hPa | - | - | 0 W/m² | - |
| 1777899421 | 36.11° C | 38% | 974 hPa | - | - | 0 W/m² | - |
| 1777898797 | 36.67° C | 37% | 974 hPa | - | - | 0 W/m² | - |
| 1777898172 | 36.11° C | 37% | 973 hPa | - | - | 0 W/m² | - |
| 1777897547 | 35.56° C | 37% | 973 hPa | - | - | 0 W/m² | - |
| 1777896922 | 35.56° C | 37% | 973 hPa | - | - | 0 W/m² | - |
| 1777896297 | 35.56° C | 36% | 973 hPa | - | - | 0 W/m² | - |
| 1777895673 | 33.89° C | 38% | 973 hPa | - | - | 0 W/m² | - |
| 1777895048 | 36.67° C | 33% | 973 hPa | - | - | 0 W/m² | - |
| 1777894423 | 36.11° C | 34% | 972 hPa | - | - | 0 W/m² | - |
| 1777893798 | 35.56° C | 35% | 972 hPa | - | - | 0 W/m² | - |
| 1777893174 | 35.56° C | 36% | 972 hPa | - | - | 0 W/m² | - |
| 1777892549 | 36.11° C | 36% | 972 hPa | - | - | 0 W/m² | - |
| 1777891924 | 36.67° C | 36% | 973 hPa | - | - | 0 W/m² | - |
| 1777891300 | 38.89° C | 31% | 972 hPa | - | - | 0 W/m² | - |
| 1777890675 | 42.22° C | 23% | 972 hPa | - | - | 0 W/m² | - |
| 1777890050 | 42.78° C | 23% | 971 hPa | - | - | 0 W/m² | - |
| 1777889426 | 42.22° C | 23% | 971 hPa | - | - | 0 W/m² | - |
| 1777888802 | 42.22° C | 23% | 971 hPa | - | - | 0 W/m² | - |
| 1777888176 | 42.22° C | 23% | 971 hPa | - | - | 0 W/m² | - |
| 1777887552 | 42.78° C | 23% | 971 hPa | - | - | 0 W/m² | - |
| 1777886926 | 42.78° C | 22% | 972 hPa | - | - | 0 W/m² | - |
| 1777886302 | 43.33° C | 22% | 972 hPa | - | - | 0 W/m² | - |
| 1777885677 | 42.78° C | 22% | 972 hPa | - | - | 0 W/m² | - |
* Rain since midnight (hover to see other rain measurements)
** Current wind speed in m/s (hover to see current wind gust speed)